#datint,netname,site,siteID,timestamp,IntT,BattV,AirT2,AirT,AirT_Avg,AirT_Max,AirT_Min,RH_Avg,RH_Max,RH_Min,EA_Avg,Td_Avg,Td_Max,Td_Min,WindS_Smp,WindS_Avg,WindD_Avg,WindD_SD,WindS_Max,ETo,ETr,SoilT4,SoilT8,SoilVWC8,SolarW_Avg,wetstate_Avg,wetT_Avg,Precip_accum,Precip_WPG,Precip_TB
15min,AgWx,beryljct,423,11JUN2020:00:00:00,55.2,12.9,55.1,55.0,52.0,55.0,50.7,34,39,29,0.446,24.3,27.5,22.7,2.828,3.4,303,20,4.8,0.00014,0.00023,64.3,60.8,10,0,.,.,13.51,0.01,0.00
15min,AgWx,beryljct,423,11JUN2020:00:15:00,55.0,12.91,54.9,55.2,57.0,58.9,54.9,28,33,24,0.489,23.8,26.5,21.4,2.258,4.4,277,7.6,5.7,0.00030,0.00045,64.1,60.8,10,0,.,.,13.50,0.00,0.00
15min,AgWx,beryljct,423,11JUN2020:00:30:00,54.7,12.9,52.3,53.1,53.9,55.5,51.3,34,41,29,0.409,26.0,28.3,22.0,3.201,1.0,278,26,3.4,-0.00019,-0.00025,63.8,60.9,10,0,.,.,13.51,0.00,0.00
15min,AgWx,beryljct,423,11JUN2020:00:45:00,53.9,12.89,48.6,49.9,50.5,53.0,48.4,34,39,30,0.480,23.0,26.1,19.5,4.735,4.3,312,8.4,7.3,0.00022,0.00032,63.6,60.9,10,0,.,.,13.51,0.00,0.00
15min,AgWx,beryljct,423,11JUN2020:01:00:00,53.1,12.89,50.4,50.8,50.9,52.9,48.8,36,41,31,0.467,25.1,26.4,22.5,6.116,5.8,304,4.2,6.8,0.00031,0.00043,63.4,60.9,10,0,.,.,13.51,0.00,0.00
15min,AgWx,beryljct,423,11JUN2020:01:15:00,52.5,12.87,50.6,50.2,51.1,52.5,49.4,36,41,32,0.487,25.0,26.8,23.4,3.244,5.4,311,8.1,6.8,0.00029,0.00040,63.2,60.9,10,0,.,.,13.51,0.00,0.00
15min,AgWx,beryljct,423,11JUN2020:01:30:00,52.0,12.86,48.3,48.3,50.4,51.1,48.3,36,41,32,0.454,24.2,27.4,22.1,4.45,3.8,328,19,5.1,0.00016,0.00025,63.0,60.9,10,0,.,.,13.51,0.00,0.00
15min,AgWx,beryljct,423,11JUN2020:01:45:00,51.5,12.84,49.3,50.1,49.8,52.5,45.6,39,49,33,0.503,25.4,27.4,23.5,4.165,4.8,318,7.5,6.6,0.00022,0.00033,62.8,60.9,10,0,.,.,13.51,0.00,0.00
15min,AgWx,beryljct,423,11JUN2020:02:00:00,51.3,12.84,49.9,49.8,51.3,54.0,49.8,37,41,31,0.504,26.1,27.4,23.6,1.25,4.1,297,4.8,6.4,0.00019,0.00028,62.5,60.9,10,0,.,.,13.51,0.00,0.00
15min,AgWx,beryljct,423,11JUN2020:02:15:00,50.8,12.83,45.2,46.3,48.9,50.4,46.3,43,51,39,0.544,27.5,29.6,25.4,3.31,1.8,225,73,4.0,-0.00009,-0.00009,62.3,60.9,10,0,.,.,13.51,0.00,0.00
15min,AgWx,beryljct,423,11JUN2020:02:30:00,49.7,12.83,44.3,44.8,44.6,46.2,43.1,54,60,47,0.562,29.1,31.9,26.1,2.85,4.1,179,6.7,5.6,0.00007,0.00012,62.1,60.9,10,0,.,.,13.51,0.00,0.00
15min,AgWx,beryljct,423,11JUN2020:02:45:00,48.7,12.82,50.7,49.6,45.9,49.6,44.3,47,56,33,0.402,26.6,29.9,21.9,2.938,3.0,196,8.6,3.7,0.00003,0.00007,62.0,60.8,10,0,.,.,13.52,0.00,0.00
15min,AgWx,beryljct,423,11JUN2020:03:00:00,48.1,12.8,46.0,46.2,47.1,50.7,45.2,42,47,31,0.476,24.8,26.4,21.3,0.899,1.6,200,5.0,2.9,-0.00009,-0.00010,61.7,60.8,10,0,.,.,13.51,0.00,0.00
15min,AgWx,beryljct,423,11JUN2020:03:15:00,47.5,12.81,43.9,44.2,44.8,46.2,43.8,49,52,45,0.502,26.9,27.4,26.0,0,0.0,221,0.0,0.8,-0.00033,-0.00053,61.5,60.8,10,0,.,.,13.52,0.00,0.00
15min,AgWx,beryljct,423,11JUN2020:03:30:00,46.7,12.8,44.8,43.4,43.2,44.6,41.6,53,58,46,0.450,27.0,28.5,24.6,3.771,2.2,147,7.6,4.5,-0.00006,-0.00006,61.4,60.8,10,0,.,.,13.52,0.00,0.00
15min,AgWx,beryljct,423,11JUN2020:03:45:00,45.6,12.79,40.5,40.7,40.9,43.5,40.1,52,59,45,0.402,24.5,26.8,21.8,3.091,3.1,171,9.9,5.2,0.00001,0.00004,61.2,60.8,10,0,.,.,13.52,0.00,0.00
15min,AgWx,beryljct,423,11JUN2020:04:00:00,44.8,12.77,42.0,42.2,41.3,42.6,40.4,43,47,40,0.384,20.4,21.9,19.3,2.784,3.8,177,4.1,4.8,0.00009,0.00015,61.0,60.8,10,0,.,.,13.52,0.00,0.00
15min,AgWx,beryljct,423,11JUN2020:04:15:00,44.3,12.76,38.6,39.6,41.9,43.0,39.6,42,51,39,0.418,20.6,22.8,19.5,1.052,1.8,171,5.9,3.3,-0.00007,-0.00007,60.8,60.7,10,0,.,.,13.52,0.00,0.00
15min,AgWx,beryljct,423,11JUN2020:04:30:00,43.6,12.76,39.2,38.5,39.6,40.6,38.5,52,58,48,0.452,23.6,25.1,22.3,2.762,1.0,173,5.0,2.8,-0.00017,-0.00023,60.6,60.7,10,0,.,.,13.52,0.00,0.00
15min,AgWx,beryljct,423,11JUN2020:04:45:00,42.9,12.75,36.8,36.6,38.0,39.9,36.6,55,62,40,0.434,23.1,25.9,17.5,2.543,3.2,293,44,4.1,0.00001,0.00003,60.4,60.7,11,0,.,.,13.52,0.00,0.00
15min,AgWx,beryljct,423,11JUN2020:05:00:00,42.0,12.74,37.6,37.0,36.7,37.2,36.0,60,62,58,0.449,24.2,24.8,23.6,0.745,1.3,322,3.5,2.2,-0.00014,-0.00018,60.2,60.7,10,0,.,.,13.52,0.00,0.00
15min,AgWx,beryljct,423,11JUN2020:05:15:00,41.4,12.73,39.9,39.7,38.9,39.9,37.0,49,60,44,0.370,21.4,24.5,19.3,1.293,1.2,325,0.3,2.0,-0.00014,-0.00018,60.1,60.6,10,0,.,.,13.52,0.00,0.00
15min,AgWx,beryljct,423,11JUN2020:05:30:00,41.1,12.72,39.7,40.1,39.3,40.1,38.7,48,53,44,0.387,21.3,23.2,19.7,2.126,1.3,330,11,2.9,0.00014,0.00025,59.9,60.6,10,0,.,.,13.52,0.00,0.00
15min,AgWx,beryljct,423,11JUN2020:05:45:00,40.8,12.72,37.0,36.8,37.2,40.1,36.0,56,66,46,0.487,23.1,26.5,21.1,0,0.9,78,38,2.2,0.00008,0.00014,59.7,60.6,10,0,.,.,13.52,0.00,0.00
15min,AgWx,beryljct,423,11JUN2020:06:00:00,40.4,12.72,37.1,37.9,37.9,38.6,36.7,56,66,50,0.431,23.4,26.6,21.7,0,0.6,18,42,1.4,0.00006,0.00010,59.5,60.5,10,1,.,.,13.52,0.00,0.00
15min,AgWx,beryljct,423,11JUN2020:06:15:00,40.0,12.72,35.3,35.5,36.8,37.7,35.4,62,72,56,0.503,24.8,27.2,23.2,3.332,1.1,131,19,4.6,0.00010,0.00016,59.3,60.5,10,3,.,.,13.52,0.00,0.00
15min,AgWx,beryljct,423,11JUN2020:06:30:00,39.6,12.71,37.2,36.6,35.7,36.7,34.8,68,72,63,0.462,26.3,27.3,25.0,3.595,3.1,170,8.7,3.7,0.00027,0.00041,59.2,60.4,11,23,.,.,13.53,0.01,0.00
15min,AgWx,beryljct,423,11JUN2020:06:45:00,39.8,12.74,38.4,38.9,37.8,39.3,36.6,58,63,55,0.476,24.2,25.9,22.9,2.981,2.6,175,3.9,4.1,0.00045,0.00062,59.0,60.4,10,56,.,.,13.52,0.00,0.00
15min,AgWx,beryljct,423,11JUN2020:07:00:00,40.9,12.73,42.1,41.9,41.1,42.0,38.7,49,60,44,0.402,23.3,26.0,21.6,3.661,3.8,179,7.5,5.8,0.00072,0.00102,58.8,60.4,10,90,.,.,13.52,0.00,0.00
15min,AgWx,beryljct,423,11JUN2020:07:15:00,43.2,12.7,47.3,46.7,44.0,46.7,41.9,46,48,42,0.459,24.6,26.7,22.0,3.025,2.8,179,9.1,4.2,0.00084,0.00112,58.7,60.3,10,130,.,.,13.52,0.00,0.00
15min,AgWx,beryljct,423,11JUN2020:07:30:00,46.4,12.74,50.4,50.1,48.8,50.1,46.8,39,43,37,0.468,25.2,26.0,24.5,3.376,3.2,170,10,4.8,0.00117,0.00155,58.5,60.3,10,172,.,.,13.52,0.00,0.00
15min,AgWx,beryljct,423,11JUN2020:07:45:00,49.7,12.72,51.7,51.3,50.5,51.3,49.9,39,43,36,0.464,26.7,28.4,24.9,4.187,4.1,155,5.4,5.4,0.00148,0.00197,58.3,60.2,10,219,.,.,13.51,0.00,0.00
15min,AgWx,beryljct,423,11JUN2020:08:00:00,52.6,12.75,53.5,53.4,52.2,53.4,51.3,36,39,34,0.485,26.2,28.0,24.4,4.362,4.0,149,10,5.6,0.00177,0.00230,58.2,60.2,10,267,.,.,13.51,0.00,0.00
15min,AgWx,beryljct,423,11JUN2020:08:15:00,55.3,12.74,55.2,55.0,54.1,55.2,53.2,34,37,31,0.490,26.4,28.9,24.0,4.187,3.9,145,8.2,5.3,0.00207,0.00264,58.0,60.1,10,318,.,.,13.51,0.00,0.00
15min,AgWx,beryljct,423,11JUN2020:08:30:00,57.8,12.76,57.9,57.5,56.2,57.5,55.0,34,36,33,0.556,28.3,30.3,26.6,3.201,3.9,135,8.8,5.0,0.00238,0.00299,57.9,60.1,10,368,.,.,13.51,0.00,0.00
15min,AgWx,beryljct,423,11JUN2020:08:45:00,60.4,12.81,60.0,59.8,58.9,60.4,57.6,32,35,30,0.566,29.3,31.2,28.1,2.477,3.0,143,15,4.5,0.00267,0.00323,57.8,60.0,10,419,.,.,13.50,0.00,0.00
15min,AgWx,beryljct,423,11JUN2020:09:00:00,63.2,12.89,62.9,62.5,61.0,62.6,59.8,29,33,27,0.521,28.4,30.6,26.7,1.381,1.5,158,57,3.9,0.00286,0.00327,57.8,60.0,10,468,.,.,13.50,0.00,0.00
15min,AgWx,beryljct,423,11JUN2020:09:15:00,66.0,13.03,63.7,63.7,63.0,64.1,62.3,26,28,24,0.484,28.0,29.9,25.7,3.551,1.5,35,63,3.6,0.00323,0.00367,57.8,59.9,10,519,.,.,13.50,0.00,0.00
15min,AgWx,beryljct,423,11JUN2020:09:30:00,68.5,13.16,64.4,64.8,64.0,65.2,63.2,24,25,23,0.504,26.7,28.1,25.4,2.192,1.9,353,27,4.4,0.00363,0.00417,57.8,59.9,10,568,.,.,13.49,0.00,0.00
15min,AgWx,beryljct,423,11JUN2020:09:45:00,70.5,13.42,67.8,66.7,65.4,66.7,64.7,23,25,22,0.502,26.7,28.4,25.2,2.938,2.9,345,23,6.2,0.00409,0.00482,57.9,59.9,10,615,.,.,13.49,0.00,0.00
15min,AgWx,beryljct,423,11JUN2020:10:00:00,72.1,13.67,68.4,67.9,66.9,68.1,65.8,22,23,21,0.519,26.6,28.1,25.4,3.179,3.2,9.5,20,5.4,0.00448,0.00528,58.1,59.8,10,662,.,.,13.49,0.00,0.00
15min,AgWx,beryljct,423,11JUN2020:10:15:00,73.8,13.8,71.1,70.0,68.5,70.1,67.5,22,23,21,0.537,28.0,29.3,26.7,3.069,3.1,3.8,27,5.9,0.00482,0.00566,58.3,59.8,10,706,.,.,13.48,0.00,0.00
15min,AgWx,beryljct,423,11JUN2020:10:30:00,75.2,14.06,69.8,71.2,69.7,71.2,68.9,21,22,21,0.552,28.5,30.1,27.3,4.428,3.3,11,33,5.9,0.00516,0.00605,58.5,59.7,10,748,.,.,13.48,0.00,0.00
15min,AgWx,beryljct,423,11JUN2020:10:45:00,76.7,14.04,72.1,71.5,71.0,73.1,69.8,21,22,20,0.556,29.1,31.4,27.7,1.929,2.5,13,35,4.8,0.00540,0.00620,58.8,59.7,10,788,.,.,13.48,0.00,0.00
15min,AgWx,beryljct,423,11JUN2020:11:00:00,78.2,13.99,73.2,72.7,72.8,74.6,71.3,20,22,19,0.545,29.5,32.6,28.4,0.263,2.6,2.6,33,7.9,0.00575,0.00660,59.2,59.7,10,827,.,.,13.47,0.00,0.00
15min,AgWx,beryljct,423,11JUN2020:11:15:00,79.9,14.04,74.9,75.3,74.1,75.7,72.8,19,20,18,0.533,29.3,32.2,28.1,0,2.1,338,58,4.8,0.00596,0.00675,59.6,59.6,10,861,.,.,13.47,0.00,0.00
15min,AgWx,beryljct,423,11JUN2020:11:30:00,81.7,13.97,78.3,76.3,76.2,77.7,74.7,17,19,16,0.523,28.9,30.6,27.1,1.052,2.0,61,68,4.3,0.00627,0.00707,60.1,59.6,10,895,.,.,13.47,0.00,0.00
15min,AgWx,beryljct,423,11JUN2020:11:45:00,83.1,13.98,79.7,79.1,77.6,79.1,76.5,16,18,16,0.541,28.5,30.4,27.2,2.674,2.9,11,39,5.0,0.00667,0.00767,60.6,59.7,10,924,.,.,13.47,0.00,0.00
15min,AgWx,beryljct,423,11JUN2020:12:00:00,84.2,13.86,80.4,80.5,80.1,81.6,78.8,16,18,13,0.478,30.2,32.3,26.0,4.669,4.5,128,42,9.7,0.00722,0.00857,61.1,59.7,10,950,.,.,13.47,0.00,0.00
15min,AgWx,beryljct,423,11JUN2020:12:15:00,85.1,13.84,80.1,81.3,81.2,83.5,80.1,15,17,14,0.514,28.9,34.3,26.4,2.587,4.3,154,51,10.5,0.00739,0.00876,61.7,59.7,10,969,.,.,13.47,0.00,0.00
15min,AgWx,beryljct,423,11JUN2020:12:30:00,85.9,13.82,85.5,83.8,83.1,84.2,81.1,15,19,13,0.613,30.2,35.7,27.0,10.35,8.7,162,21,14.3,0.00830,0.01049,62.4,59.7,10,993,.,.,13.47,0.00,0.00
15min,AgWx,beryljct,423,11JUN2020:12:45:00,86.4,13.82,83.1,83.9,83.7,85.3,82.6,14,17,12,0.461,29.7,33.6,25.2,12.04,10.1,150,23,16.1,0.00864,0.01111,63.0,59.8,10,1008,.,.,13.47,0.00,0.00
15min,AgWx,beryljct,423,11JUN2020:13:00:00,86.9,13.39,84.0,84.9,84.8,85.9,82.8,12,15,9.1,0.428,25.6,31.4,20.2,10.85,12.3,174,11,19.7,0.00921,0.01215,63.7,59.8,10,1028,.,.,13.47,0.00,0.00
15min,AgWx,beryljct,423,11JUN2020:13:15:00,87.3,13.44,86.1,85.6,84.8,85.8,83.6,11,12,9.3,0.462,24.4,26.7,20.8,9.08,10.5,192,24,17.5,0.00898,0.01165,64.4,59.9,10,1031,.,.,13.47,0.00,0.00
15min,AgWx,beryljct,423,11JUN2020:13:30:00,87.8,13.39,85.7,85.3,85.6,86.7,84.1,10,11,9.0,0.431,23.4,26.2,20.0,16.53,12.6,187,17,25.6,0.00938,0.01242,65.1,60.0,10,1036,.,.,13.47,0.00,0.00
15min,AgWx,beryljct,423,11JUN2020:13:45:00,88.1,13.4,84.2,85.0,85.4,87.2,83.5,10,11,9.6,0.457,23.5,27.2,21.6,13.77,12.1,192,16,19.9,0.00930,0.01226,65.7,60.1,10,1036,.,.,13.47,0.00,0.00
15min,AgWx,beryljct,423,11JUN2020:14:00:00,88.6,13.47,85.0,85.5,85.6,86.8,84.6,11,14,8.7,0.490,24.6,30.9,19.2,14.67,13.4,169,16,20.1,0.00947,0.01264,66.3,60.2,10,1033,.,.,13.46,0.00,0.00
15min,AgWx,beryljct,423,11JUN2020:14:15:00,88.7,13.47,85.1,86.2,85.6,86.7,84.3,10,13,8.5,0.420,23.2,28.8,19.6,13.35,13.1,169,13,21.5,0.00940,0.01253,66.9,60.4,10,1027,.,.,13.47,0.00,0.00
15min,AgWx,beryljct,423,11JUN2020:14:30:00,88.8,13.45,86.7,86.0,86.0,87.3,84.9,9.4,11,8.7,0.397,21.7,24.7,19.9,16.92,13.2,194,25,21.1,0.00942,0.01260,67.4,60.5,10,1020,.,.,13.47,0.00,0.00
15min,AgWx,beryljct,423,11JUN2020:14:45:00,88.8,13.44,86.4,85.6,86.5,87.4,85.5,8.9,10,8.1,0.388,20.7,23.9,18.2,18.7,13.9,199,12,21.2,0.00950,0.01282,68.0,60.7,10,1006,.,.,13.47,0.00,0.00
15min,AgWx,beryljct,423,11JUN2020:15:00:00,88.7,13.32,85.4,86.8,86.7,88.3,85.6,10,13,9.2,0.525,23.8,30.3,21.0,14.99,12.2,189,27,21.6,0.00908,0.01210,68.5,60.8,10,983,.,.,13.47,0.00,0.00
15min,AgWx,beryljct,423,11JUN2020:15:15:00,88.9,13.31,85.1,86.7,86.5,87.6,84.9,10,12,9.6,0.435,24.3,26.8,21.7,20.67,12.9,198,17,20.7,0.00902,0.01211,69.0,61.0,10,962,.,.,13.47,0.00,0.00
15min,AgWx,beryljct,423,11JUN2020:15:30:00,89.2,13.33,86.7,87.1,87.0,88.2,85.5,10,11,9.3,0.427,24.0,25.3,22.3,15.52,15.9,204,13,21.4,0.00940,0.01301,69.5,61.2,10,941,.,.,13.47,0.00,0.00
15min,AgWx,beryljct,423,11JUN2020:15:45:00,89.5,13.32,86.6,86.9,87.0,87.7,86.1,10,11,9.4,0.437,23.8,25.5,22.8,16.42,15.9,195,16,21.7,0.00923,0.01283,70.0,61.4,10,913,.,.,13.47,0.00,0.00
15min,AgWx,beryljct,423,11JUN2020:16:00:00,89.7,13.34,87.3,87.3,86.8,87.8,86.1,9.4,10,8.6,0.455,22.3,24.8,20.3,12.5,14.1,190,14,22.1,0.00875,0.01207,70.4,61.5,10,882,.,.,13.47,0.00,0.00
15min,AgWx,beryljct,423,11JUN2020:16:15:00,90.3,13.37,85.9,86.9,86.7,87.4,85.9,10,12,8.9,0.416,24.0,28.0,20.9,8.88,13.8,168,15,23.0,0.00842,0.01165,70.8,61.8,10,844,.,.,13.47,0.00,0.00
15min,AgWx,beryljct,423,11JUN2020:16:30:00,90.7,13.29,85.8,86.3,87.0,87.7,86.2,10,11,9.3,0.434,24.1,26.3,22.0,7.563,11.1,211,24,17.1,0.00755,0.01029,71.1,61.9,10,780,.,.,13.47,0.00,0.00
15min,AgWx,beryljct,423,11JUN2020:16:45:00,91.1,13.3,87.1,86.9,87.0,88.4,85.8,10,13,9.4,0.509,25.0,29.8,21.8,9.91,9.4,179,26,17.3,0.00681,0.00921,71.5,62.1,10,721,.,.,13.47,0.00,0.00
15min,AgWx,beryljct,423,11JUN2020:17:00:00,91.4,13.33,86.4,86.5,87.5,88.3,86.4,10,12,9.1,0.433,24.2,29.0,21.7,10.13,12.4,186,24,20.2,0.00749,0.01046,71.8,62.3,10,728,.,.,13.47,0.00,0.00
15min,AgWx,beryljct,423,11JUN2020:17:15:00,91.2,13.35,88.2,88.3,86.7,88.3,85.7,10,13,9.3,0.457,24.6,30.4,21.2,17.23,13.5,176,26,20.9,0.00732,0.01041,72.1,62.5,10,688,.,.,13.47,0.00,0.00
15min,AgWx,beryljct,423,11JUN2020:17:30:00,91.0,13.29,86.3,86.6,86.7,88.4,85.6,9.5,10,8.9,0.407,22.3,25.0,20.8,13.42,11.9,189,26,21.6,0.00673,0.00956,72.4,62.7,10,637,.,.,13.47,0.00,0.00
15min,AgWx,beryljct,423,11JUN2020:17:45:00,90.7,13.3,85.5,86.3,86.5,87.2,85.7,8.9,9.6,8.2,0.362,20.7,22.5,19.0,16.24,11.9,204,16,21.5,0.00648,0.00932,72.6,62.9,10,601,.,.,13.47,0.00,0.00
15min,AgWx,beryljct,423,11JUN2020:18:00:00,90.2,13.29,86.4,86.6,86.5,87.1,85.8,8.5,9.1,8.1,0.361,19.8,21.4,18.2,14.47,13.4,220,12,20.0,0.00651,0.00961,72.8,63.1,10,559,.,.,13.47,0.00,0.00
15min,AgWx,beryljct,423,11JUN2020:18:15:00,89.7,13.33,84.8,85.5,85.9,86.6,85.4,8.3,8.7,7.7,0.330,18.6,20.3,16.8,18.5,14.4,209,12,20.2,0.00634,0.00955,73.0,63.3,10,511,.,.,13.48,0.01,0.00
15min,AgWx,beryljct,423,11JUN2020:18:30:00,89.1,13.29,85.4,85.3,85.5,86.1,85.2,8.4,8.9,8.0,0.355,18.7,20.1,17.4,8.44,13.4,216,14,18.0,0.00581,0.00884,73.1,63.5,10,460,.,.,13.47,0.00,0.00
15min,AgWx,beryljct,423,11JUN2020:18:45:00,88.6,13.18,85.2,85.1,85.2,85.5,84.8,8.6,9.1,8.2,0.362,18.9,20.4,17.7,14.05,11.4,211,16,17.6,0.00500,0.00762,73.2,63.7,10,409,.,.,13.48,0.00,0.00
15min,AgWx,beryljct,423,11JUN2020:19:00:00,88.1,13.13,84.2,84.6,84.8,85.3,84.6,8.5,8.9,8.0,0.355,18.5,19.5,17.0,16.62,12.9,217,11,17.3,0.00498,0.00784,73.2,63.9,11,358,.,.,13.47,0.00,0.00
15min,AgWx,beryljct,423,11JUN2020:19:15:00,87.5,13.11,83.8,84.0,84.3,84.6,84.0,8.8,9.3,8.4,0.350,18.7,19.9,17.8,12.45,12.4,218,11,18.6,0.00451,0.00725,73.1,64.1,10,307,.,.,13.48,0.00,0.00
15min,AgWx,beryljct,423,11JUN2020:19:30:00,86.9,13.09,83.4,83.6,83.8,84.0,83.5,8.9,9.5,8.5,0.339,18.8,20.1,17.6,12.06,10.1,214,12,16.6,0.00366,0.00595,73.0,64.2,10,258,.,.,13.48,0.00,0.00
15min,AgWx,beryljct,423,11JUN2020:19:45:00,86.2,13.08,82.9,83.1,83.2,83.6,82.9,8.8,9.4,8.2,0.343,18.1,19.4,16.6,10.57,11.1,222,13,17.4,0.00354,0.00597,72.9,64.4,10,211,.,.,13.48,0.00,0.00
15min,AgWx,beryljct,423,11JUN2020:20:00:00,85.4,13.06,81.8,81.9,82.5,83.1,81.9,9.2,9.9,8.6,0.366,18.6,19.8,17.3,7.936,9.5,213,11,16.3,0.00190,0.00253,72.8,64.6,10,166,.,.,13.47,0.00,0.00
15min,AgWx,beryljct,423,11JUN2020:20:15:00,84.5,13.03,80.9,81.3,81.6,82.1,81.1,9.5,10,9.0,0.358,18.6,19.6,17.6,11.33,9.5,220,8.6,14.0,0.00175,0.00234,72.7,64.7,10,124,.,.,13.48,0.00,0.00
15min,AgWx,beryljct,423,11JUN2020:20:30:00,83.3,13.05,79.4,79.3,80.5,81.4,79.3,10,11,9.6,0.382,19.8,21.1,18.7,5.809,7.8,206,9.1,13.1,0.00142,0.00196,72.5,64.9,10,85,.,.,13.47,0.00,0.00
15min,AgWx,beryljct,423,11JUN2020:20:45:00,81.7,13.03,77.0,77.5,78.3,79.3,77.5,11,12,10,0.368,19.6,21.4,18.1,4.911,6.3,217,8.9,8.9,0.00105,0.00150,72.3,65.0,10,49,.,.,13.48,0.01,0.00
15min,AgWx,beryljct,423,11JUN2020:21:00:00,79.6,13.02,75.4,75.0,76.4,77.5,75.0,12,12,11,0.354,19.2,20.1,17.8,5.042,5.7,216,7.4,9.2,0.00081,0.00119,72.1,65.1,10,8,.,.,13.48,0.00,0.00
15min,AgWx,beryljct,423,11JUN2020:21:15:00,77.2,13.02,73.4,72.9,73.8,75.1,72.3,13,14,12,0.363,19.5,20.6,18.5,4.319,4.3,213,5.1,5.6,0.00051,0.00079,71.9,65.2,10,1,.,.,13.48,0.00,0.00
15min,AgWx,beryljct,423,11JUN2020:21:30:00,74.8,13.01,73.2,72.5,73.0,73.8,72.3,13,14,12,0.363,19.3,20.0,18.3,4.077,4.4,224,3.2,5.6,0.00052,0.00080,71.6,65.3,10,0,.,.,13.48,0.00,0.00
15min,AgWx,beryljct,423,11JUN2020:21:45:00,72.8,13,65.7,70.5,71.5,73.1,70.0,14,15,13,0.384,19.7,21.5,18.1,3.398,3.9,216,6.5,5.0,0.00041,0.00066,71.3,65.3,10,0,.,.,13.49,0.00,0.00
15min,AgWx,beryljct,423,11JUN2020:22:00:00,70.8,12.98,68.1,68.9,69.3,70.2,68.4,15,16,14,0.356,19.6,21.8,18.7,3.814,3.0,184,7.5,4.4,0.00022,0.00039,70.9,65.4,10,0,.,.,13.49,0.00,0.00
15min,AgWx,beryljct,423,11JUN2020:22:15:00,69.0,12.97,64.6,62.6,67.7,70.3,61.6,15,22,13,0.340,18.9,23.0,16.8,4.669,3.7,173,14,5.6,0.00034,0.00054,70.6,65.5,10,0,.,.,13.49,0.00,0.00
15min,AgWx,beryljct,423,11JUN2020:22:30:00,66.6,12.97,67.1,64.2,61.9,64.2,58.9,18,23,15,0.323,17.6,20.9,15.2,4.932,5.1,179,14,6.8,0.00049,0.00070,70.2,65.5,10,0,.,.,13.49,0.00,0.00
15min,AgWx,beryljct,423,11JUN2020:22:45:00,65.1,12.96,67.1,67.5,66.7,67.7,64.6,14,16,14,0.319,16.4,16.9,16.0,3.661,4.1,184,4.3,5.2,0.00042,0.00064,69.9,65.6,10,0,.,.,13.49,0.00,0.00
15min,AgWx,beryljct,423,11JUN2020:23:00:00,64.0,12.96,57.1,59.8,63.0,68.3,58.7,18,25,13,0.378,18.8,23.6,16.1,3.069,4.0,166,13,5.2,0.00035,0.00054,69.5,65.6,10,0,.,.,13.49,0.00,0.00
15min,AgWx,beryljct,423,11JUN2020:23:15:00,62.1,12.95,63.3,60.1,58.8,61.9,55.5,20,25,16,0.312,17.8,21.9,15.4,5.393,4.5,161,10,6.1,0.00037,0.00055,69.1,65.6,10,0,.,.,13.50,0.01,0.00
15min,AgWx,beryljct,423,11JUN2020:23:30:00,60.4,12.95,62.7,61.6,57.8,61.7,55.1,18,21,15,0.289,14.6,17.4,12.9,3.946,4.2,188,7.5,5.2,0.00034,0.00051,68.7,65.6,10,0,.,.,13.49,0.00,0.00
15min,AgWx,bigpiney,439,11JUN2020:00:00:00,45.6,12.73,46.3,45.9,41.1,45.9,38.8,82,88,69,0.725,36.1,36.5,35.5,3.223,3.3,260,51,5.7,-0.00009,-0.00011,50.7,46.3,55,0,0,0.0,7.20,0.00,0.00
15min,AgWx,bigpiney,439,11JUN2020:00:15:00,45.2,12.72,44.5,43.9,44.5,46.6,43.8,71,74,67,0.714,35.9,36.3,35.5,0,0.9,254,42,6.6,-0.00021,-0.00029,50.7,46.3,55,0,0,0.0,7.20,0.00,0.00
15min,AgWx,bigpiney,439,11JUN2020:00:30:00,45.0,12.72,43.1,44.1,43.9,44.6,43.0,74,76,72,0.717,36.1,36.3,35.8,1.732,1.0,118,40,2.1,-0.00020,-0.00029,50.6,46.3,55,0,0,0.0,7.20,0.00,0.00
15min,AgWx,bigpiney,439,11JUN2020:00:45:00,44.6,12.71,43.0,43.3,43.3,44.1,42.2,75,78,73,0.731,36.1,36.5,35.0,0,0.1,152,23,1.4,-0.00028,-0.00044,50.5,46.3,55,0,0,0.0,7.20,0.00,0.00
15min,AgWx,bigpiney,439,11JUN2020:01:00:00,44.2,12.71,39.4,40.4,42.4,43.3,40.4,78,79,77,0.672,36.1,36.6,34.3,1.535,0.4,183,12,1.9,-0.00026,-0.00039,50.4,46.3,55,0,0,0.0,7.20,0.00,0.00
15min,AgWx,bigpiney,439,11JUN2020:01:15:00,43.6,12.7,38.7,40.0,39.6,40.6,38.1,85,88,79,0.711,35.3,36.4,34.1,1.578,2.0,227,11,3.3,-0.00015,-0.00020,50.4,46.3,55,0,0,0.0,7.20,0.00,0.00
15min,AgWx,bigpiney,439,11JUN2020:01:30:00,42.8,12.68,38.7,38.9,38.1,39.8,37.1,87,91,84,0.676,34.7,36.2,33.9,2.806,2.8,226,6.4,3.5,-0.00013,-0.00015,50.3,46.3,55,0,0,0.0,7.20,0.00,0.00
15min,AgWx,bigpiney,439,11JUN2020:01:45:00,42.0,12.68,38.0,37.7,38.2,39.5,37.2,87,91,84,0.696,34.7,35.6,33.9,0.789,2.2,239,10,3.4,-0.00015,-0.00019,50.2,46.4,55,0,0,0.0,7.20,0.00,0.00
15min,AgWx,bigpiney,439,11JUN2020:02:00:00,41.3,12.67,35.9,35.9,36.2,38.0,35.3,90,91,87,0.642,33.5,35.6,32.5,2.916,3.1,228,13,4.2,-0.00012,-0.00015,50.1,46.4,55,0,0,0.0,7.20,0.00,0.00
15min,AgWx,bigpiney,439,11JUN2020:02:15:00,40.7,12.66,36.7,36.2,35.8,36.2,35.3,90,92,89,0.660,33.3,34.1,32.6,2.28,3.3,242,7.7,5.3,-0.00012,-0.00014,50.0,46.4,55,0,0,0.0,7.20,0.00,0.00
15min,AgWx,bigpiney,439,11JUN2020:02:30:00,40.2,12.65,34.9,35.3,36.4,36.7,35.3,90,91,88,0.623,33.7,34.2,32.5,2.85,2.2,253,23,3.2,-0.00015,-0.00019,49.9,46.4,55,0,0,0.0,7.20,0.00,0.00
15min,AgWx,bigpiney,439,11JUN2020:02:45:00,39.7,12.64,35.6,35.1,34.6,35.2,34.1,91,92,89,0.634,32.3,33.0,31.8,3.902,3.4,225,11,5.2,-0.00011,-0.00013,49.8,46.3,55,0,0,0.0,7.20,0.00,0.00
15min,AgWx,bigpiney,439,11JUN2020:03:00:00,39.3,12.63,35.6,35.4,35.9,36.6,35.2,90,92,88,0.634,33.3,34.1,32.5,1.841,2.8,288,23,4.5,-0.00013,-0.00016,49.7,46.4,55,0,0,0.0,7.20,0.00,0.00
15min,AgWx,bigpiney,439,11JUN2020:03:15:00,39.0,12.62,38.0,38.1,35.9,38.1,35.1,91,93,88,0.686,33.4,35.0,32.5,1.425,2.0,253,28,3.5,-0.00016,-0.00020,49.6,46.4,55,0,0,0.0,7.20,0.00,0.00
15min,AgWx,bigpiney,439,11JUN2020:03:30:00,38.7,12.61,36.7,36.8,38.1,38.9,36.8,87,89,86,0.638,34.6,35.2,33.1,4.319,3.1,309,20,4.3,-0.00012,-0.00014,49.5,46.4,55,0,0,0.0,7.20,0.00,0.00
15min,AgWx,bigpiney,439,11JUN2020:03:45:00,38.6,12.6,35.2,35.2,36.5,37.5,35.2,88,89,86,0.618,33.3,34.3,32.3,2.828,4.2,284,8.8,5.0,-0.00009,-0.00010,49.4,46.5,55,0,0,0.0,7.20,0.00,0.00
15min,AgWx,bigpiney,439,11JUN2020:04:00:00,38.5,12.6,36.2,36.0,35.4,36.0,35.2,90,91,89,0.641,32.8,33.4,32.3,2.17,3.0,256,13,3.7,-0.00012,-0.00015,49.3,46.5,55,0,0,0.0,7.20,0.00,0.00
15min,AgWx,bigpiney,439,11JUN2020:04:15:00,38.3,12.58,33.7,33.9,35.6,36.8,33.9,89,90,87,0.587,32.6,33.7,31.0,5.239,3.1,234,17,5.2,-0.00011,-0.00014,49.2,46.4,55,0,0,0.0,7.20,0.00,0.00
15min,AgWx,bigpiney,439,11JUN2020:04:30:00,38.0,12.58,33.7,33.4,33.8,34.2,33.4,91,92,89,0.589,31.3,32.0,30.8,2.587,3.8,221,9.5,5.8,-0.00010,-0.00011,49.1,46.5,55,0,0,0.0,7.20,0.00,0.00
15min,AgWx,bigpiney,439,11JUN2020:04:45:00,37.6,12.55,34.6,34.8,34.4,34.8,33.4,91,92,90,0.614,32.2,32.7,31.2,1.556,2.5,251,8.5,3.7,-0.00014,-0.00017,49.0,46.5,55,0,0,0.0,7.20,0.00,0.00
15min,AgWx,bigpiney,439,11JUN2020:05:00:00,37.3,12.55,32.9,33.0,34.4,35.4,33.0,89,91,87,0.577,31.5,32.7,30.5,1.644,2.0,310,33,3.5,-0.00015,-0.00019,48.9,46.4,55,0,0,0.0,7.20,0.00,0.00
15min,AgWx,bigpiney,439,11JUN2020:05:15:00,37.0,12.53,31.4,32.1,32.9,33.5,32.1,91,93,90,0.557,30.6,31.1,29.7,3.551,1.7,287,55,3.6,-0.00016,-0.00021,48.8,46.5,55,0,0,0.0,7.20,0.00,0.00
15min,AgWx,bigpiney,439,11JUN2020:05:30:00,36.5,12.52,33.6,32.4,32.6,34.3,31.3,91,94,88,0.563,30.3,31.9,29.0,2.061,1.5,217,21,4.4,-0.00016,-0.00021,48.7,46.5,55,1,0,0.0,7.20,0.00,0.00
15min,AgWx,bigpiney,439,11JUN2020:05:45:00,36.1,12.52,33.0,33.1,33.2,33.8,32.5,91,93,89,0.577,30.7,31.5,30.2,1.973,1.9,206,6.8,3.7,-0.00014,-0.00018,48.5,46.5,55,4,0,0.0,7.20,0.00,0.00
15min,AgWx,bigpiney,439,11JUN2020:06:00:00,35.8,12.52,34.3,34.3,34.4,35.2,33.1,89,92,87,0.582,31.6,32.0,30.6,2.959,0.7,174,20,3.0,-0.00035,-0.00037,48.4,46.4,55,18,1,0.0,7.20,0.00,0.00
15min,AgWx,bigpiney,439,11JUN2020:06:15:00,35.8,12.54,32.9,32.4,32.7,34.4,32.0,90,92,87,0.569,30.1,31.5,29.5,4.034,3.3,184,7.5,4.4,-0.00015,-0.00013,48.3,46.4,55,46,0,0.0,7.20,0.00,0.00
15min,AgWx,bigpiney,439,11JUN2020:06:30:00,36.0,12.56,33.8,33.4,32.8,33.4,32.4,92,93,92,0.600,30.9,31.5,30.3,2.499,2.9,192,7.5,4.3,-0.00005,-0.00003,48.2,46.5,55,75,0,0.0,7.20,0.00,0.00
15min,AgWx,bigpiney,439,11JUN2020:06:45:00,36.6,12.56,36.3,35.8,34.6,35.8,33.4,93,93,92,0.660,32.7,33.9,31.5,0.285,1.9,208,7.8,3.5,0.00008,0.00010,48.1,46.4,55,109,0,0.0,7.20,0.00,0.00
15min,AgWx,bigpiney,439,11JUN2020:07:00:00,37.9,12.58,39.4,39.1,37.6,39.1,35.8,91,93,90,0.728,35.2,36.5,33.9,2.389,2.0,214,8.8,3.0,0.00027,0.00030,48.0,46.5,55,146,0,0.0,7.20,0.00,0.00
15min,AgWx,bigpiney,439,11JUN2020:07:15:00,39.7,12.59,42.1,41.7,40.3,41.7,39.1,88,90,86,0.771,37.1,38.0,36.3,0,1.7,218,9.9,3.6,0.00049,0.00055,47.9,46.4,55,188,0,0.0,7.20,0.00,0.00
15min,AgWx,bigpiney,439,11JUN2020:07:30:00,41.9,12.61,44.1,43.7,42.8,43.7,41.7,85,87,84,0.810,38.6,39.7,37.8,2.302,0.6,127,6.8,2.4,0.00076,0.00082,47.7,46.4,55,234,0,0.0,7.20,0.00,0.00
15min,AgWx,bigpiney,439,11JUN2020:07:45:00,44.1,12.64,45.6,45.2,44.5,45.2,43.7,83,85,79,0.812,39.6,40.2,38.6,0,1.0,113,18,3.0,0.00105,0.00114,47.6,46.4,55,282,0,0.0,7.20,0.00,0.00
15min,AgWx,bigpiney,439,11JUN2020:08:00:00,46.4,12.67,46.2,46.8,46.1,46.9,45.2,78,82,75,0.836,39.7,40.7,38.7,3.595,1.6,102,20,3.6,0.00134,0.00149,47.5,46.4,55,330,0,0.0,7.20,0.00,0.00